GW6384 Weather Reports


time (UTC)temp
F
wind
direction
speed
knots
gust
knots
rain 1hr
in
rain 24hr
in
rain mn
in
humidity
%
barometer
mb
20260502170334 58 345 3.5 9.6 0.00 0.00 0.00 50 922.3
20260502164331 58 324 4.3 11.3 0.00 0.00 0.00 47 918.1
20260502163830 58 1 6.1 11.3 0.00 0.00 0.00 47 702.7
20260502163329 57 319 3.5 11.3 0.00 0.00 0.00 51 922.3
20260502162828 57 294 3.5 11.3 0.00 0.00 0.00 47 861.0
20260502162327 57 14 3.5 11.3 0.00 0.00 0.00 49 686.2
20260502161827 57 331 5.2 11.3 0.00 0.00 0.00 49 954.7
20260502161326 57 19 4.3 11.3 0.00 0.00 0.00 51 797.0
20260502160826 57 325 0.9 11.3 0.00 0.00 0.00 51 876.6
20260502160325 57 0 2.6 11.3 0.00 0.00 0.00 50 600.2
20260502152319 55 3 4.3 10.4 0.00 0.00 0.00 54 982.5
20260502151304 55 332 3.5 9.6 0.00 0.00 0.00 56 981.8
20260502150804 55 352 4.3 9.6 0.00 0.00 0.00 54 944.2
20260502150303 55 2 4.3 9.6 0.00 0.00 0.00 56 701.5
20260502130633 47 335 1.7 9.6 0.00 0.00 0.00 70 1134.3
20260502130133 47 336 1.7 9.6 0.00 0.00 0.00 71 1098.6
20260502123630 44 290 0.0 9.6 0.00 0.00 0.00 75 1033.2
20260502123130 44 290 0.9 9.6 0.00 0.00 0.00 75 1033.5
20260502122114 43 290 0.0 9.6 0.00 0.00 0.00 77 1034.0
20260502121614 43 290 0.9 9.6 0.00 0.00 0.00 76 1033.6
20260502121113 43 290 0.0 9.6 0.00 0.00 0.00 78 1034.1
20260502120612 42 290 0.9 9.6 0.00 0.00 0.00 79 1035.3
20260502120111 42 291 0.0 9.6 0.00 0.00 0.00 81 1036.1
20260502115611 41 291 0.0 9.6 0.00 0.00 0.00 82 1035.6
20260502115110 41 291 0.0 9.6 0.00 0.00 0.00 81 1035.0
20260502114053 42 291 0.0 9.6 0.00 0.00 0.00 82 1032.8
20260502113553 42 291 0.0 9.6 0.00 0.00 0.00 81 1032.0
20260502113053 42 291 0.0 9.6 0.00 0.00 0.00 81 1031.8
20260502112553 42 291 0.0 9.6 0.00 0.00 0.00 81 1033.8
20260502111536 42 291 0.0 9.6 0.00 0.00 0.00 81 1035.1
20260502110520 42 291 0.0 9.6 0.00 0.00 0.00 81 1034.2
20260502110020 42 291 0.0 9.6 0.00 0.00 0.00 81 1033.3
20260502105519 43 291 0.0 9.6 0.00 0.00 0.00 81 1031.8
20260502104503 43 292 0.0 9.6 0.00 0.00 0.00 80 1033.5
20260502104003 43 292 0.0 9.6 0.00 0.00 0.00 80 1034.4
20260502103503 43 292 0.0 9.6 0.00 0.00 0.00 79 1034.4
20260502103003 44 292 0.0 9.6 0.00 0.00 0.00 79 1033.6
20260502102503 44 292 0.0 9.6 0.00 0.00 0.00 79 1033.1
20260502102003 44 292 0.0 9.6 0.00 0.00 0.00 79 1033.8
20260502101503 44 292 0.0 9.6 0.00 0.00 0.00 78 1034.3
20260502101003 44 292 0.0 9.6 0.00 0.00 0.00 78 1034.7
20260502091414 44 291 0.0 9.6 0.00 0.00 0.00 78 1033.7
20260502090913 44 291 0.0 9.6 0.00 0.00 0.00 78 1033.6
20260502071313 46 287 0.0 9.6 0.00 0.00 0.00 79 1022.2
20260502070812 46 287 0.0 9.6 0.00 0.00 0.00 80 1022.2
20260502065756 46 287 0.0 9.6 0.00 0.00 0.00 80 1020.6
20260502065255 46 287 0.0 9.6 0.00 0.00 0.00 80 1020.4
20260502064754 46 287 0.0 9.6 0.00 0.00 0.00 80 1020.3
20260502064253 46 287 0.0 9.6 0.00 0.00 0.00 80 1020.6
20260502063753 47 287 0.0 9.6 0.00 0.00 0.00 80 1020.4
20260502063253 47 287 0.0 9.6 0.00 0.00 0.00 80 1020.5
20260502062753 47 287 0.0 9.6 0.00 0.00 0.00 80 1020.5
20260502062253 47 287 0.0 9.6 0.00 0.00 0.00 80 1020.4
20260502061753 47 287 0.0 9.6 0.00 0.00 0.00 80 1020.5
20260502060221 47 287 0.0 9.6 0.00 0.00 0.00 78 1019.8
20260502055720 47 287 0.0 9.6 0.00 0.00 0.00 78 1019.2
20260502054704 48 287 0.0 9.6 0.00 0.00 0.00 78 1019.1
20260502054204 48 287 0.0 9.6 0.00 0.00 0.00 77 1020.0
20260502053703 48 287 0.0 9.6 0.00 0.00 0.00 77 1020.6
20260502053203 48 287 0.0 9.6 0.00 0.00 0.00 77 1020.8
20260502052703 48 287 0.0 9.6 0.00 0.00 0.00 78 1020.9
20260502051646 49 287 0.0 9.6 0.00 0.00 0.00 77 1020.7
20260502050629 49 287 0.0 9.6 0.00 0.00 0.00 76 1020.1
20260502050129 49 287 0.0 9.6 0.00 0.00 0.00 75 1020.6
20260502045629 49 287 0.0 9.6 0.00 0.00 0.00 74 1020.8
20260502045129 50 287 0.0 9.6 0.00 0.00 0.00 74 1020.2
20260502044114 50 287 0.0 9.6 0.00 0.00 0.00 76 1018.3
20260502043613 50 287 0.0 9.6 0.00 0.00 0.00 74 1018.4
20260502043112 51 287 0.0 9.6 0.00 0.00 0.00 73 1019.2
20260502042612 51 287 0.0 9.6 0.00 0.00 0.00 72 1019.3
20260502042112 51 287 0.0 9.6 0.00 0.00 0.00 72 1019.1
20260502041611 51 287 0.0 9.6 0.00 0.00 0.00 72 1019.2
20260502040555 52 287 0.0 9.6 0.00 0.00 0.00 70 1020.1
20260502040054 52 287 0.0 9.6 0.00 0.00 0.00 69 1019.6
20260502035553 52 287 0.0 9.6 0.00 0.00 0.00 69 1019.5
20260502035053 52 287 0.0 9.6 0.00 0.00 0.00 68 1019.2
20260502034552 52 287 0.0 9.6 0.00 0.00 0.00 68 1018.8
20260502034052 53 287 0.0 9.6 0.00 0.00 0.00 67 1019.7
20260502032520 54 287 0.0 9.6 0.00 0.00 0.00 66 1019.3
20260502032019 54 287 0.0 9.6 0.00 0.00 0.00 67 1019.4
20260502031003 55 287 0.0 9.6 0.00 0.00 0.00 64 1019.0
20260502030503 55 287 0.0 9.6 0.00 0.00 0.00 62 1018.8
20260502030003 55 287 0.0 9.6 0.00 0.00 0.00 61 1018.4
20260502025502 56 287 0.0 9.6 0.00 0.00 0.00 61 1018.1
20260502025002 56 287 0.0 9.6 0.00 0.00 0.00 59 1017.5
20260502024502 56 287 0.0 9.6 0.00 0.00 0.00 59 1017.1
20260502024002 57 287 0.0 9.6 0.00 0.00 0.00 59 1017.3
20260502023502 57 287 0.0 9.6 0.00 0.00 0.00 57 1017.8
20260502023002 58 287 0.0 9.6 0.00 0.00 0.00 58 1018.6
20260502022501 58 287 0.0 9.6 0.00 0.00 0.00 54 1018.8
20260502022001 58 287 0.0 9.6 0.00 0.00 0.00 53 1019.5
20260502021501 58 287 0.0 9.6 0.00 0.00 0.00 51 1019.8
20260502021001 59 287 0.0 9.6 0.00 0.00 0.00 51 1019.6
20260502020501 59 287 0.0 9.6 0.00 0.00 0.00 51 1019.7
20260502020000 59 287 0.0 9.6 0.00 0.00 0.00 51 1019.5
20260502015459 60 287 0.0 9.6 0.00 0.00 0.00 50 1019.3
20260502014959 60 287 0.0 9.6 0.00 0.00 0.00 50 1019.3
20260502014458 60 287 0.0 9.6 0.00 0.00 0.00 50 1019.6
20260502013958 60 287 0.0 9.6 0.00 0.00 0.00 49 1020.7
20260502013457 60 287 0.0 9.6 0.00 0.00 0.00 49 1021.9
20260502012956 61 288 0.0 9.6 0.00 0.00 0.00 49 1024.5
20260502012455 61 291 0.0 9.6 0.00 0.00 0.00 49 1028.0
20260502011438 62 291 0.0 9.6 0.00 0.00 0.00 48 1029.4
20260502010937 62 291 0.0 9.6 0.00 0.00 0.00 48 1030.5
20260502010437 62 291 0.0 9.6 0.00 0.00 0.00 49 1031.4
20260502005420 63 291 0.0 9.6 0.00 0.00 0.00 45 1030.6
20260502004919 63 291 0.0 9.6 0.00 0.00 0.00 44 1031.5
20260502004418 63 291 0.0 9.6 0.00 0.00 0.00 46 1031.6
20260502003402 63 291 0.0 9.6 0.00 0.00 0.00 43 1034.5
20260502002902 64 291 0.0 9.6 0.00 0.00 0.00 42 1037.4
20260502001847 64 292 0.0 9.6 0.00 0.00 0.00 42 1055.9
20260502001346 64 300 0.9 9.6 0.00 0.00 0.00 41 1077.7
20260502000846 64 309 0.0 9.6 0.00 0.00 0.00 42 1085.9
20260502000347 64 309 0.0 9.6 0.00 0.00 0.00 41 1085.3
20260501235845 64 309 0.0 9.6 0.00 0.00 0.00 41 1084.5
20260501235344 64 309 0.0 9.6 0.00 0.00 0.00 39 1084.2
20260501234327 64 310 0.0 9.6 0.00 0.00 0.00 39 1077.1
20260501233826 64 310 0.0 9.6 0.00 0.00 0.00 37 1068.4
20260501233326 64 293 2.6 9.6 0.00 0.00 0.00 37 1051.9
20260501232825 65 297 2.6 9.6 0.00 0.00 0.00 37 1069.6
20260501232324 65 316 2.6 9.6 0.00 0.00 0.00 37 1074.7
20260501231824 65 310 0.0 9.6 0.00 0.00 0.00 38 1087.1
20260501231324 65 336 0.0 9.6 0.00 0.00 0.00 40 1087.2
20260501230824 65 19 0.9 9.6 0.00 0.00 0.00 40 998.1
20260501225808 64 325 0.9 9.6 0.00 0.00 0.00 39 1126.1
20260501225307 64 343 0.9 9.6 0.00 0.00 0.00 39 1124.9
20260501224251 65 336 1.7 9.6 0.00 0.00 0.00 37 1066.0
20260501223750 65 276 5.2 9.6 0.00 0.00 0.00 37 1035.6
20260501223249 65 306 1.7 9.6 0.00 0.00 0.00 37 1088.4
20260501222748 66 314 1.7 9.6 0.00 0.00 0.00 37 1103.6
20260501222247 65 301 2.6 10.4 0.00 0.00 0.00 37 1071.8
20260501221746 65 323 5.2 10.4 0.00 0.00 0.00 37 1099.2
20260501220730 65 352 4.3 10.4 0.00 0.00 0.00 36 1068.9
20260501220229 66 301 1.7 10.4 0.00 0.00 0.00 38 1002.4
20260501215213 65 329 2.6 10.4 0.00 0.00 0.00 38 1026.8
20260501214713 65 261 2.6 10.4 0.00 0.00 0.00 37 1003.2
20260501214212 65 300 3.5 10.4 0.00 0.00 0.00 37 1043.6
20260501213711 65 316 0.9 10.4 0.00 0.00 0.00 38 1039.7
20260501212656 66 286 4.3 9.6 0.00 0.00 0.00 35 1009.6
20260501212155 66 315 4.3 9.6 0.00 0.00 0.00 35 1005.0
20260501211654 66 255 3.5 9.6 0.00 0.00 0.00 36 974.0
20260501211153 67 277 4.3 9.6 0.00 0.00 0.00 36 996.0
20260501210652 66 257 3.5 9.6 0.00 0.00 0.00 36 1025.3
20260501210151 66 308 1.7 9.6 0.00 0.00 0.00 36 1072.0
20260501205650 66 289 2.6 9.6 0.00 0.00 0.00 38 1067.4
20260501204634 65 304 4.3 9.6 0.00 0.00 0.00 37 1049.9
20260501204133 65 290 1.7 9.6 0.00 0.00 0.00 37 1048.9
20260501203632 65 321 0.9 9.6 0.00 0.00 0.00 36 1057.8
20260501202615 65 351 0.9 9.6 0.00 0.00 0.00 36 998.1
20260501202114 64 313 1.7 9.6 0.00 0.00 0.00 36 900.6
20260501201613 64 289 0.0 9.6 0.00 0.00 0.00 36 969.4
20260501200557 64 0 3.5 9.6 0.00 0.00 0.00 36 789.6
20260501200057 64 311 4.3 9.6 0.00 0.00 0.00 34 995.3
20260501195557 65 303 5.2 9.6 0.00 0.00 0.00 34 881.5
20260501195057 65 37 2.6 9.6 0.00 0.00 0.00 37 656.8
20260501194041 65 355 4.3 9.6 0.00 0.00 0.00 37 963.5
20260501193540 65 344 3.5 9.6 0.00 0.00 0.00 36 951.3
20260501193039 65 345 1.7 9.6 0.00 0.00 0.00 34 760.5
20260501192023 64 270 3.5 10.4 0.00 0.00 0.00 35 996.6
20260501191523 64 295 4.3 9.6 0.00 0.00 0.00 35 1024.4
20260501191023 64 283 1.7 9.6 0.00 0.00 0.00 35 976.9
20260501190522 64 288 4.3 9.6 0.00 0.00 0.00 36 938.2
20260501190022 64 295 1.7 9.6 0.00 0.00 0.00 37 809.9
20260501185522 64 8 4.3 9.6 0.00 0.00 0.00 37 861.0
20260501183950 64 294 5.2 10.4 0.00 0.00 0.00 34 976.0
20260501183449 64 281 3.5 9.6 0.00 0.00 0.00 35 946.7
20260501182949 64 249 5.2 9.6 0.00 0.00 0.00 35 893.8
20260501182448 64 202 0.0 10.4 0.00 0.00 0.00 35 916.1
20260501181947 63 274 3.5 13.0 0.00 0.00 0.00 36 952.9
20260501181446 63 262 6.1 13.0 0.00 0.00 0.00 36 945.0
20260501180945 63 297 5.2 9.6 0.00 0.00 0.00 34 955.9
20260501174856 64 222 2.6 10.4 0.00 0.00 0.00 40 665.4
20260501174355 63 158 1.7 10.4 0.00 0.00 0.00 41 612.2
20260501173854 63 107 2.6 10.4 0.00 0.00 0.00 42 618.1
20260501173353 63 168 1.7 10.4 0.00 0.00 0.00 43 719.8
20260501172337 62 354 0.0 10.4 0.00 0.00 0.00 45 1104.9